AUA505 LOWI-EDDS

Flight info

Callsign AUA505
Flight time 0h 36m
Altitude 22000
Route KOGOL M726 MAH L173 DODIL T127 TEKSI TEKSI1W
Aircraft BCS1/M-SBDE2E3GIRWXY/LB1

Departure

Time 2026-05-06 19:09
Airport Innsbruck Airport (LOWI)

Arrival

Time 2026-05-06 19:45
Airport Stuttgart Airport (EDDS)
Time Latitude Longitude Altitude Speed Heading
2026-05-06 18:08 47.25817 11.34989 1908 ft 0 kts 171°
2026-05-06 18:22 47.25824 11.34988 1893 ft 0 kts 164°
2026-05-06 18:22 47.25825 11.34988 1893 ft 2 kts 164°
2026-05-06 18:22 47.25848 11.34970 1899 ft 2 kts 126°
2026-05-06 18:23 47.25857 11.34951 1904 ft 7 kts 125°
2026-05-06 18:23 47.25866 11.34930 1895 ft 0 kts 78°
2026-05-06 18:23 47.25869 11.34957 1896 ft 4 kts 78°
2026-05-06 18:24 47.25872 11.34976 1902 ft 0 kts 78°
2026-05-06 18:24 47.25875 11.34996 1901 ft 0 kts 78°
2026-05-06 18:24 47.25877 11.35019 1908 ft 7 kts 81°
2026-05-06 18:24 47.25882 11.35068 1896 ft 3 kts 81°
2026-05-06 18:25 47.25882 11.35073 1898 ft 0 kts 81°
2026-05-06 18:26 47.25885 11.35113 1900 ft 6 kts 84°
2026-05-06 18:26 47.25891 11.35188 1908 ft 7 kts 84°
2026-05-06 18:26 47.25896 11.35248 1897 ft 5 kts 77°
2026-05-06 18:27 47.25911 11.35280 1900 ft 3 kts 39°
2026-05-06 18:27 47.25914 11.35283 1900 ft 0 kts 36°
2026-05-06 18:30 47.25922 11.35286 1900 ft 3 kts 14°
2026-05-06 18:30 47.25929 11.35286 1908 ft 2 kts
2026-05-06 18:30 47.25943 11.35285 1900 ft 0 kts 356°
2026-05-06 18:31 47.25944 11.35284 1900 ft 0 kts 353°
2026-05-06 18:34 47.25952 11.35282 1908 ft 2 kts 352°
2026-05-06 18:34 47.25990 11.35275 1900 ft 16 kts 353°
2026-05-06 18:35 47.26099 11.35279 1907 ft 25 kts 38°
2026-05-06 18:35 47.26121 11.35526 1897 ft 22 kts 105°
2026-05-06 18:35 47.26122 11.35712 1902 ft 12 kts 42°
2026-05-06 18:35 47.26149 11.35687 1904 ft 12 kts 284°
2026-05-06 18:36 47.26076 11.35120 1902 ft 109 kts 256°
2026-05-06 18:36 47.25810 11.34991 1906 ft 0 kts 171°
2026-05-06 19:00 47.25812 11.34990 1908 ft 2 kts 171°
2026-05-06 19:00 47.25830 11.34986 1893 ft 2 kts 193°
2026-05-06 19:00 47.25844 11.34999 1900 ft 2 kts 263°
2026-05-06 19:00 47.25839 11.35023 1899 ft 3 kts 325°
2026-05-06 19:01 47.25841 11.35022 1899 ft 6 kts 333°
2026-05-06 19:01 47.25846 11.35019 1897 ft 5 kts 333°
2026-05-06 19:01 47.25863 11.34970 1908 ft 11 kts 279°
2026-05-06 19:01 47.25860 11.34891 1908 ft 6 kts 265°
2026-05-06 19:02 47.25852 11.34821 1902 ft 10 kts 257°
2026-05-06 19:02 47.25838 11.34701 1908 ft 12 kts 262°
2026-05-06 19:02 47.25829 11.34605 1908 ft 8 kts 262°
2026-05-06 19:02 47.25822 11.34525 1908 ft 6 kts 262°
2026-05-06 19:03 47.25815 11.34466 1905 ft 6 kts 259°
2026-05-06 19:03 47.25807 11.34401 1895 ft 6 kts 260°
2026-05-06 19:03 47.25800 11.34336 1906 ft 6 kts 260°
2026-05-06 19:03 47.25793 11.34281 1902 ft 5 kts 260°
2026-05-06 19:04 47.25787 11.34229 1905 ft 4 kts 260°
2026-05-06 19:04 47.25783 11.34180 1899 ft 15 kts 263°
2026-05-06 19:04 47.25772 11.34046 1908 ft 11 kts 268°
2026-05-06 19:04 47.25790 11.33932 1906 ft 11 kts 295°
2026-05-06 19:05 47.25808 11.33885 1897 ft 0 kts 304°
2026-05-06 19:07 47.25826 11.33847 1902 ft 19 kts 304°
2026-05-06 19:07 47.25894 11.33707 1909 ft 11 kts 318°
2026-05-06 19:08 47.25916 11.33702 1896 ft 3 kts
2026-05-06 19:08 47.25930 11.33711 1897 ft 1 kts 31°
2026-05-06 19:08 47.25945 11.33739 1897 ft 15 kts 63°
2026-05-06 19:08 47.26016 11.34307 1908 ft 108 kts 80°
2026-05-06 19:09 47.26218 11.35851 2220 ft 188 kts 84°
2026-05-06 19:09 47.26513 11.38076 3025 ft 251 kts 81°
2026-05-06 19:09 47.26753 11.40539 3943 ft 240 kts 83°
2026-05-06 19:09 47.26992 11.42927 4905 ft 231 kts 81°
2026-05-06 19:10 47.27323 11.45210 5855 ft 230 kts 79°
2026-05-06 19:10 47.27738 11.47551 6739 ft 240 kts 76°
2026-05-06 19:10 47.28242 11.49903 7776 ft 242 kts 72°
2026-05-06 19:10 47.28806 11.52214 8906 ft 236 kts 71°
2026-05-06 19:11 47.29477 11.54479 10239 ft 246 kts 68°
2026-05-06 19:11 47.30194 11.56809 11607 ft 258 kts 68°
2026-05-06 19:11 47.30931 11.59260 13014 ft 263 kts 69°
2026-05-06 19:11 47.31690 11.61843 13837 ft 299 kts 69°
2026-05-06 19:12 47.32556 11.64851 14425 ft 338 kts 70°
2026-05-06 19:12 47.33458 11.68235 14954 ft 372 kts 70°
2026-05-06 19:12 47.34556 11.71882 15380 ft 409 kts 66°
2026-05-06 19:12 47.35950 11.75720 15408 ft 431 kts 61°
2026-05-06 19:13 47.37454 11.79542 15453 ft 431 kts 62°
2026-05-06 19:13 47.38945 11.83342 15741 ft 426 kts 62°
2026-05-06 19:13 47.40435 11.87152 16213 ft 430 kts 62°
2026-05-06 19:13 47.42287 11.90623 16876 ft 435 kts 43°
2026-05-06 19:14 47.44867 11.93025 16781 ft 441 kts 19°
2026-05-06 19:14 47.47838 11.93824 16768 ft 435 kts 359°
2026-05-06 19:14 47.50803 11.93229 16755 ft 427 kts 339°
2026-05-06 19:14 47.53470 11.91496 17419 ft 416 kts 325°
2026-05-06 19:15 47.55732 11.88840 17976 ft 418 kts 308°
2026-05-06 19:15 47.57390 11.85336 18056 ft 415 kts 294°
2026-05-06 19:15 47.58600 11.81574 17935 ft 410 kts 289°
2026-05-06 19:15 47.59649 11.77647 17809 ft 409 kts 287°
2026-05-06 19:16 47.60638 11.73723 18198 ft 401 kts 287°
2026-05-06 19:16 47.61613 11.69829 19000 ft 406 kts 287°
2026-05-06 19:16 47.62598 11.65873 19858 ft 412 kts 286°
2026-05-06 19:16 47.63452 11.61845 20956 ft 409 kts 279°
2026-05-06 19:17 47.63941 11.57744 21972 ft 384 kts 273°
2026-05-06 19:17 47.64186 11.53878 22393 ft 379 kts 270°
2026-05-06 19:17 47.64319 11.49960 22357 ft 379 kts 268°
2026-05-06 19:17 47.64285 11.46084 22059 ft 373 kts 256°
2026-05-06 19:18 47.63669 11.42380 21907 ft 370 kts 258°
2026-05-06 19:18 47.63832 11.38541 21820 ft 382 kts 282°
2026-05-06 19:18 47.65071 11.34992 21792 ft 398 kts 306°
2026-05-06 19:18 47.67206 11.32338 21773 ft 407 kts 329°
2026-05-06 19:19 47.69906 11.31043 21774 ft 414 kts 352°
2026-05-06 19:19 47.72773 11.31321 21767 ft 418 kts 14°
2026-05-06 19:19 47.75464 11.32948 21815 ft 417 kts 26°
2026-05-06 19:19 47.78118 11.34678 21834 ft 419 kts 17°
2026-05-06 19:20 47.80960 11.35621 21863 ft 417 kts
2026-05-06 19:20 47.83843 11.36046 21886 ft 417 kts
2026-05-06 19:20 47.86745 11.36200 21878 ft 417 kts 359°
2026-05-06 19:20 47.89560 11.36242 21876 ft 390 kts 358°
2026-05-06 19:21 47.92143 11.36012 21877 ft 363 kts 351°
2026-05-06 19:21 47.94697 11.35474 21883 ft 383 kts 352°
2026-05-06 19:21 47.97438 11.35178 21881 ft 405 kts 355°
2026-05-06 19:21 48.00309 11.34821 21883 ft 421 kts 351°
2026-05-06 19:22 48.03268 11.34321 21885 ft 436 kts 354°
2026-05-06 19:22 48.06341 11.34004 21884 ft 449 kts 353°
2026-05-06 19:22 48.09477 11.33494 21889 ft 459 kts 352°
2026-05-06 19:22 48.12701 11.33078 21881 ft 470 kts 355°
2026-05-06 19:23 48.15645 11.32704 21884 ft 477 kts 353°
2026-05-06 19:23 48.18965 11.32172 21881 ft 484 kts 354°
2026-05-06 19:23 48.22341 11.31779 21877 ft 490 kts 353°
2026-05-06 19:23 48.24566 11.31171 21816 ft 493 kts 342°
2026-05-06 19:24 48.27637 11.28919 21755 ft 494 kts 323°
2026-05-06 19:24 48.30259 11.25582 21774 ft 493 kts 311°
2026-05-06 19:24 48.32336 11.21518 21803 ft 491 kts 296°
2026-05-06 19:24 48.33790 11.16875 21800 ft 492 kts 290°
2026-05-06 19:25 48.35087 11.12115 21839 ft 493 kts 289°
2026-05-06 19:25 48.36343 11.07301 21865 ft 491 kts 288°
2026-05-06 19:25 48.37751 11.02734 21869 ft 475 kts 295°
2026-05-06 19:25 48.39323 10.98456 21836 ft 460 kts 295°
2026-05-06 19:26 48.40670 10.94157 21363 ft 442 kts 291°
2026-05-06 19:26 48.41999 10.90141 20902 ft 418 kts 295°
2026-05-06 19:26 48.43297 10.86351 20441 ft 395 kts 292°
2026-05-06 19:26 48.44431 10.82696 20015 ft 377 kts 292°
2026-05-06 19:27 48.45601 10.79282 19572 ft 363 kts 293°
2026-05-06 19:27 48.46695 10.75942 19137 ft 350 kts 291°
2026-05-06 19:27 48.47727 10.72689 18703 ft 339 kts 292°
2026-05-06 19:27 48.48786 10.69560 18274 ft 330 kts 292°
2026-05-06 19:28 48.49783 10.66501 17802 ft 321 kts 291°
2026-05-06 19:28 48.50741 10.63497 17315 ft 314 kts 292°
2026-05-06 19:28 48.51710 10.60586 16830 ft 307 kts 292°
2026-05-06 19:28 48.52648 10.57721 16365 ft 301 kts 291°
2026-05-06 19:29 48.53643 10.54981 15895 ft 300 kts 306°
2026-05-06 19:29 48.55108 10.52768 15575 ft 290 kts 307°
2026-05-06 19:29 48.56326 10.50463 15309 ft 277 kts 301°
2026-05-06 19:29 48.57396 10.48107 15011 ft 268 kts 298°
2026-05-06 19:30 48.58285 10.45693 14656 ft 258 kts 288°
2026-05-06 19:30 48.58991 10.43215 14275 ft 255 kts 289°
2026-05-06 19:30 48.59698 10.40781 13882 ft 252 kts 289°
2026-05-06 19:30 48.60411 10.38388 13473 ft 249 kts 290°
2026-05-06 19:31 48.61136 10.36022 13042 ft 246 kts 291°
2026-05-06 19:31 48.61865 10.33702 12616 ft 243 kts 291°
2026-05-06 19:31 48.63912 10.29608 11622 ft 243 kts 295°
2026-05-06 19:32 48.64632 10.27351 11315 ft 234 kts 290°
2026-05-06 19:32 48.65268 10.25123 10995 ft 227 kts 288°
2026-05-06 19:32 48.65835 10.22991 10935 ft 209 kts 287°
2026-05-06 19:32 48.66356 10.21028 10916 ft 202 kts 288°
2026-05-06 19:33 48.66937 10.18833 10918 ft 245 kts 288°
2026-05-06 19:33 48.67585 10.16323 10895 ft 273 kts 288°
2026-05-06 19:33 48.68281 10.13582 10884 ft 277 kts 288°
2026-05-06 19:33 48.68968 10.10885 10868 ft 271 kts 288°
2026-05-06 19:34 48.69640 10.08248 10870 ft 266 kts 288°
2026-05-06 19:34 48.70305 10.05659 10866 ft 262 kts 288°
2026-05-06 19:34 48.70985 10.02983 10869 ft 283 kts 288°
2026-05-06 19:34 48.71701 10.00108 10864 ft 299 kts 288°
2026-05-06 19:35 48.72445 9.97094 10857 ft 312 kts 288°
2026-05-06 19:35 48.73216 9.93952 10854 ft 323 kts 288°
2026-05-06 19:35 48.73979 9.90842 10852 ft 303 kts 288°
2026-05-06 19:35 48.74692 9.87975 10856 ft 279 kts 288°
2026-05-06 19:36 48.75361 9.85322 10850 ft 259 kts 288°
2026-05-06 19:36 48.75989 9.82874 10838 ft 241 kts 288°
2026-05-06 19:36 48.76590 9.80533 10439 ft 240 kts 288°
2026-05-06 19:36 48.77139 9.78175 10058 ft 234 kts 280°
2026-05-06 19:37 48.77432 9.75768 9679 ft 230 kts 276°
2026-05-06 19:37 48.77632 9.73370 9263 ft 227 kts 274°
2026-05-06 19:37 48.77796 9.71000 8841 ft 225 kts 274°
2026-05-06 19:37 48.77944 9.68660 8432 ft 221 kts 273°
2026-05-06 19:38 48.77923 9.66354 8027 ft 217 kts 259°
2026-05-06 19:38 48.77586 9.64131 7634 ft 216 kts 254°
2026-05-06 19:38 48.77157 9.61963 7245 ft 214 kts 252°
2026-05-06 19:38 48.76705 9.59904 6935 ft 197 kts 251°
2026-05-06 19:39 48.76275 9.57982 6513 ft 188 kts 251°
2026-05-06 19:39 48.75867 9.56149 6076 ft 180 kts 251°
2026-05-06 19:39 48.75455 9.54382 5635 ft 176 kts 251°
2026-05-06 19:39 48.75055 9.52656 5213 ft 172 kts 251°
2026-05-06 19:40 48.74646 9.50968 4872 ft 172 kts 251°
2026-05-06 19:40 48.74249 9.49268 4681 ft 171 kts 252°
2026-05-06 19:40 48.73876 9.47637 4536 ft 160 kts 251°
2026-05-06 19:40 48.73509 9.46107 4389 ft 150 kts 251°
2026-05-06 19:41 48.73182 9.44640 4166 ft 145 kts 253°
2026-05-06 19:41 48.72900 9.43183 3950 ft 143 kts 255°
2026-05-06 19:41 48.72634 9.41738 3719 ft 141 kts 255°
2026-05-06 19:41 48.72380 9.40297 3511 ft 144 kts 255°
2026-05-06 19:42 48.72122 9.38859 3371 ft 138 kts 255°
2026-05-06 19:42 48.71857 9.37511 3219 ft 130 kts 253°
2026-05-06 19:42 48.71597 9.36222 3023 ft 126 kts 255°
2026-05-06 19:42 48.71358 9.34924 2836 ft 130 kts 255°
2026-05-06 19:43 48.71121 9.33572 2721 ft 137 kts 255°
2026-05-06 19:43 48.70872 9.32201 2608 ft 127 kts 254°
2026-05-06 19:43 48.70639 9.30972 2348 ft 118 kts 254°
2026-05-06 19:43 48.70418 9.29724 2070 ft 129 kts 253°
2026-05-06 19:44 48.70164 9.28374 1962 ft 134 kts 252°
2026-05-06 19:44 48.69929 9.27080 1741 ft 121 kts 251°
2026-05-06 19:44 48.69689 9.25846 1517 ft 124 kts 251°
2026-05-06 19:44 48.69448 9.24595 1422 ft 120 kts 252°
2026-05-06 19:45 48.69218 9.23395 1287 ft 113 kts 251°
2026-05-06 19:45 48.69031 9.22412 1286 ft 79 kts 253°
2026-05-06 19:45 48.68944 9.21791 1286 ft 43 kts 276°
2026-05-06 19:45 48.68979 9.21544 1286 ft 1 kts 284°
2026-05-06 19:46 48.68980 9.21543 1286 ft 0 kts 284°
2026-05-06 19:46 48.68982 9.21528 1286 ft 4 kts 285°
2026-05-06 19:47 48.68992 9.21471 1286 ft 4 kts 285°
2026-05-06 19:47 48.69002 9.21411 1286 ft 9 kts 281°
2026-05-06 19:47 48.68992 9.21282 1286 ft 11 kts 254°
2026-05-06 19:47 48.68952 9.21096 1286 ft 20 kts 251°
2026-05-06 19:48 48.68915 9.20928 1290 ft 14 kts 253°
2026-05-06 19:48 48.68894 9.20810 1287 ft 11 kts 256°
2026-05-06 19:48 48.68873 9.20680 1290 ft 14 kts 256°
2026-05-06 19:48 48.68847 9.20527 1286 ft 16 kts 255°
2026-05-06 19:49 48.68815 9.20353 1291 ft 18 kts 254°
2026-05-06 19:49 48.68779 9.20169 1287 ft 19 kts 252°
2026-05-06 19:49 48.68781 9.19996 1289 ft 16 kts 305°
2026-05-06 19:49 48.68865 9.19884 1290 ft 15 kts 335°
2026-05-06 19:50 48.68884 9.19808 1286 ft 9 kts 266°
2026-05-06 19:50 48.68869 9.19727 1287 ft 8 kts 256°
2026-05-06 19:50 48.68852 9.19634 1287 ft 10 kts 254°
2026-05-06 19:50 48.68833 9.19536 1287 ft 8 kts 254°
2026-05-06 19:51 48.68830 9.19477 1289 ft 11 kts 288°
2026-05-06 19:51 48.68864 9.19443 1287 ft 9 kts 343°
2026-05-06 19:51 48.68898 9.19428 1287 ft 0 kts 343°